DW9151 Weather Reports


Display with metric or nautical units.
time (UTC)temp
F
wind
direction
speed
MPH
gust
MPH
rain 1hr
in
rain 24hr
in
rain mn
in
humidity
%
barometer
mb
20260506214627 39 11 6.0 14.0 0.00 1.00 1.00 84 1013.4
20260506214128 39 11 8.0 14.0 0.00 1.00 1.00 84 1013.4
20260506213628 39 14 8.0 13.0 0.00 1.00 1.00 84 1013.4
20260506213127 39 15 6.0 12.0 0.00 1.00 1.00 84 1013.5
20260506212128 39 13 7.0 13.0 0.00 1.00 1.00 84 1013.5
20260506211628 39 11 6.0 12.0 0.00 1.00 1.00 84 1013.5
20260506211128 39 15 6.0 10.0 0.00 1.00 1.00 84 1013.5
20260506210627 39 14 6.0 12.0 0.00 1.00 1.00 84 1013.4
20260506210127 39 17 7.0 12.0 0.00 1.00 1.00 84 1013.4
20260506205627 39 10 6.0 12.0 0.00 1.00 1.00 84 1013.5
20260506205128 40 14 5.0 9.0 0.00 1.00 1.00 84 1013.5
20260506204627 40 18 3.0 8.0 0.00 1.00 1.00 84 1013.5
20260506204128 40 12 9.0 14.0 0.00 1.00 1.00 84 1013.5
20260506203628 40 9 7.0 12.0 0.00 1.00 1.00 84 1013.4
20260506203128 40 11 7.0 10.0 0.00 1.00 1.00 84 1013.4
20260506202628 40 15 7.0 12.0 0.00 1.00 1.00 84 1013.5
20260506202127 40 14 6.0 12.0 0.00 1.00 1.00 84 1013.4
20260506201628 40 12 7.0 12.0 0.00 1.00 1.00 84 1013.5
20260506200628 40 11 9.0 12.0 0.00 1.01 1.00 84 1013.3
20260506200128 40 14 5.0 8.0 0.00 1.01 1.00 84 1013.3
20260506195628 40 12 4.0 8.0 0.00 1.02 1.00 84 1013.4
20260506195128 40 12 5.0 8.0 0.00 1.02 1.00 84 1013.3
20260506194627 40 11 7.0 13.0 0.00 1.02 1.00 84 1013.3
20260506194128 40 8 5.0 8.0 0.00 1.02 1.00 84 1013.2
20260506193628 40 11 5.0 8.0 0.00 1.02 1.00 84 1013.1
20260506192627 40 13 3.0 6.0 0.00 1.02 1.00 84 1013.0
20260506192127 40 11 3.0 5.0 0.00 1.02 1.00 84 1013.0
20260506191628 40 9 3.0 6.0 0.00 1.02 1.00 84 1012.9
20260506191127 40 10 4.0 6.0 0.00 1.02 1.00 84 1012.9
20260506190628 39 16 3.0 8.0 0.00 1.02 1.00 84 1012.8
20260506190128 40 15 6.0 12.0 0.00 1.02 1.00 84 1012.8
20260506185628 39 11 3.0 7.0 0.00 1.02 1.00 84 1012.8
20260506184628 39 14 2.0 3.0 0.00 1.03 1.00 84 1012.7
20260506182627 40 14 1.0 3.0 0.00 1.03 1.00 84 1012.6
20260506182127 40 15 2.0 5.0 0.00 1.03 1.00 84 1012.5
20260506181627 40 12 3.0 7.0 0.00 1.03 1.00 84 1012.4
20260506181127 40 9 2.0 3.0 0.00 1.03 1.00 84 1012.3
20260506180627 40 13 3.0 6.0 0.00 1.04 1.00 84 1012.4
20260506180128 40 9 3.0 5.0 0.00 1.05 1.00 84 1012.3
20260506175627 40 14 3.0 6.0 0.00 1.06 1.00 84 1012.4
20260506175128 41 9 3.0 6.0 0.00 1.06 1.00 84 1012.3
20260506174627 40 16 2.0 3.0 0.00 1.06 1.00 84 1012.3
20260506174127 40 12 2.0 7.0 0.00 1.06 1.00 84 1012.3
20260506173627 40 13 2.0 5.0 0.00 1.06 1.00 84 1012.3
20260506173127 40 11 3.0 6.0 0.00 1.06 1.00 84 1012.3
20260506172627 40 13 3.0 7.0 0.00 1.06 1.00 84 1012.1
20260506172128 40 15 2.0 7.0 0.00 1.07 1.00 84 1012.1
20260506171628 41 14 6.0 9.0 0.00 1.08 1.00 84 1012.1
20260506171128 41 10 3.0 7.0 0.00 1.09 1.00 84 1011.9
20260506170627 41 17 4.0 10.0 0.00 1.10 1.00 84 1011.9
20260506165627 41 7 2.0 9.0 0.00 1.12 1.00 84 1011.8
20260506165127 41 12 3.0 8.0 0.00 1.12 1.00 84 1011.8
20260506164627 41 14 2.0 7.0 0.01 1.13 1.00 84 1011.8
20260506164128 41 10 2.0 7.0 0.01 1.13 1.00 84 1011.8
20260506163127 41 8 6.0 12.0 0.01 1.16 1.00 84 1011.8
20260506162627 41 14 1.0 7.0 0.01 1.17 1.00 84 1011.8
20260506162127 41 14 3.0 12.0 0.01 1.17 1.00 84 1011.8
20260506161627 41 10 5.0 12.0 0.01 1.17 1.00 84 1011.9
20260506161127 41 12 3.0 9.0 0.01 1.17 1.00 84 1011.8
20260506160627 41 14 5.0 12.0 0.01 1.17 1.00 84 1011.9
20260506155127 41 13 3.0 9.0 0.01 1.18 1.00 84 1011.9
20260506154627 40 14 2.0 5.0 0.00 1.17 0.99 84 1011.8
20260506153627 40 11 5.0 12.0 0.00 1.17 0.99 84 1011.7
20260506153127 41 11 5.0 10.0 0.00 1.17 0.99 84 1011.7
20260506152627 41 8 7.0 18.0 0.00 1.18 0.99 84 1011.7
20260506152127 41 9 5.0 17.0 0.00 1.18 0.99 84 1011.6
20260506151627 41 11 8.0 20.0 0.00 1.18 0.99 84 1011.7
20260506151127 41 13 4.0 10.0 0.00 1.18 0.99 84 1011.7
20260506150627 41 13 6.0 12.0 0.00 1.19 0.99 84 1011.8
20260506145627 41 11 9.0 15.0 0.00 1.19 0.99 84 1011.8
20260506145127 40 9 6.0 16.0 0.00 1.19 0.99 84 1011.8
20260506144627 40 10 10.0 15.0 0.00 1.20 0.99 84 1011.9
20260506144129 40 10 6.0 12.0 0.00 1.20 0.99 84 1012.0
20260506143627 40 10 7.0 15.0 0.00 1.20 0.99 84 1011.9
20260506142627 40 15 7.0 14.0 0.01 1.20 0.99 84 1011.9
20260506141627 40 10 8.0 16.0 0.02 1.20 0.99 84 1011.8
20260506140627 40 9 9.0 16.0 0.02 1.20 0.99 84 1011.8
20260506135627 39 10 9.0 18.0 0.04 1.20 0.99 84 1011.8
20260506135127 39 10 9.0 22.0 0.06 1.20 0.99 84 1011.8
20260506134627 39 11 12.0 22.0 0.14 1.20 0.99 84 1012.0
20260506134127 39 11 11.0 24.0 0.17 1.20 0.99 84 1011.8
20260506133127 40 10 13.0 24.0 0.20 1.20 0.99 84 1011.9
20260506132627 39 11 13.0 24.0 0.19 1.20 0.98 84 1012.0
20260506132127 39 11 10.0 21.0 0.20 1.20 0.98 84 1012.1
20260506131627 39 9 10.0 22.0 0.20 1.19 0.98 84 1012.1
20260506131127 39 13 13.0 24.0 0.22 1.19 0.98 84 1012.1
20260506130627 39 8 9.0 18.0 0.22 1.18 0.97 84 1012.3
20260506130127 39 8 13.0 21.0 0.24 1.18 0.97 84 1012.3
20260506125130 39 8 5.0 14.0 0.20 1.14 0.93 84 1012.6
20260506124627 39 11 8.0 13.0 0.15 1.07 0.85 84 1012.5
20260506123627 41 14 10.0 16.0 0.13 1.03 0.81 84 1012.5
20260506123127 41 16 9.0 14.0 0.13 1.02 0.80 84 1012.4
20260506122628 41 10 10.0 14.0 0.13 1.02 0.80 84 1012.4
20260506122127 41 15 6.0 12.0 0.13 1.01 0.78 84 1012.3
20260506121627 41 13 7.0 12.0 0.13 1.00 0.77 84 1012.3
20260506121127 41 12 5.0 12.0 0.11 0.99 0.76 84 1012.4
20260506120627 40 11 5.0 8.0 0.10 0.98 0.75 84 1012.3
20260506120127 40 11 6.0 8.0 0.09 0.98 0.73 84 1012.4
20260506115627 40 11 2.0 3.0 0.08 0.98 0.72 84 1012.5
20260506115127 40 11 2.0 3.0 0.08 0.98 0.72 84 1012.5
20260506114627 40 13 2.0 5.0 0.06 0.95 0.70 84 1012.5
20260506114127 40 11 3.0 6.0 0.04 0.94 0.69 84 1012.6
20260506113627 40 13 3.0 7.0 0.03 0.94 0.68 84 1012.5
20260506113127 41 12 5.0 7.0 0.03 0.93 0.67 84 1012.6
20260506112626 41 10 3.0 8.0 0.03 0.93 0.67 84 1012.6
20260506112127 41 11 2.0 5.0 0.02 0.91 0.65 84 1012.7
20260506111626 40 16 2.0 7.0 0.01 0.91 0.65 84 1012.8
20260506111127 40 14 4.0 7.0 0.01 0.91 0.65 84 1012.9
20260506110627 41 12 4.0 7.0 0.01 0.91 0.65 84 1013.0
20260506110127 41 11 4.0 7.0 0.02 0.92 0.65 84 1013.1
20260506105627 41 15 4.0 7.0 0.02 0.93 0.65 84 1013.2
20260506105126 41 8 5.0 10.0 0.02 0.93 0.65 84 1013.1
20260506104126 41 17 6.0 12.0 0.02 0.94 0.65 84 1013.2
20260506103127 41 16 2.0 5.0 0.02 0.94 0.64 84 1013.3
20260506102626 40 14 7.0 12.0 0.02 0.95 0.64 84 1013.3
20260506102127 40 13 5.0 8.0 0.02 0.95 0.64 84 1013.3
20260506101126 41 12 3.0 7.0 0.02 0.96 0.64 84 1013.4
20260506100627 41 10 3.0 7.0 0.02 0.97 0.64 84 1013.2
20260506100127 41 11 4.0 6.0 0.01 0.97 0.63 84 1013.3
20260506095627 41 9 5.0 7.0 0.00 0.96 0.62 84 1013.3
20260506094627 40 13 6.0 10.0 0.02 0.98 0.62 84 1013.2
20260506093126 40 13 4.0 12.0 0.04 1.00 0.62 84 1013.2
20260506092627 40 15 3.0 8.0 0.05 1.00 0.62 84 1013.3
20260506092126 40 14 4.0 9.0 0.05 1.01 0.62 84 1013.3
20260506090126 40 10 3.0 9.0 0.06 1.07 0.62 84 1013.1
20260506085627 41 16 5.0 9.0 0.09 1.07 0.62 84 1013.0
20260506084127 40 16 3.0 9.0 0.12 1.05 0.60 84 1012.9
20260506083127 40 13 6.0 10.0 0.13 1.03 0.58 84 1012.9
20260506082626 40 18 4.0 9.0 0.13 1.03 0.57 84 1012.9
20260506081627 40 15 4.0 9.0 0.14 1.05 0.57 84 1012.8
20260506081127 40 17 6.0 12.0 0.13 1.07 0.57 84 1012.8
20260506080627 40 15 5.0 9.0 0.14 1.08 0.56 84 1012.8
20260506080127 40 16 3.0 7.0 0.17 1.08 0.56 84 1012.8
20260506072126 39 16 6.0 9.0 0.30 0.98 0.45 84 1012.9
20260506071627 39 9 5.0 7.0 0.31 0.97 0.43 84 1013.0
20260506071126 39 14 2.0 9.0 0.31 0.97 0.43 84 1013.1
20260506070627 39 9 5.0 9.0 0.31 0.95 0.42 84 1013.0
20260506070127 39 16 2.0 12.0 0.30 0.92 0.39 84 1013.0
20260506062126 39 15 2.0 6.0 0.13 0.69 0.15 84 1012.9
20260506061627 39 17 4.0 8.0 0.12 0.66 0.13 84 1012.8
20260506061126 38 14 3.0 8.0 0.11 0.65 0.12 84 1012.8
20260506060627 38 11 4.0 8.0 0.10 0.64 0.10 84 1012.8
20260506060127 38 10 4.0 7.0 0.09 0.62 0.09 84 1012.8
20260506051126 40 12 1.0 3.0 0.01 0.54 0.01 84 1013.3
20260506050626 40 11 3.0 8.0 0.00 0.54 0.00 84 1013.3
20260506050126 39 12 7.0 8.0 0.00 0.54 0.00 84 1013.4
20260506045126 39 11 6.0 10.0 0.00 0.54 0.00 84 1013.2
20260506044126 39 13 6.0 12.0 0.00 0.54 0.00 84 1013.1
20260506043626 39 14 6.0 9.0 0.00 0.54 0.00 84 1013.0
20260506043127 38 11 5.0 8.0 0.00 0.54 0.00 84 1013.0
20260506042627 38 12 5.0 8.0 0.00 0.54 0.00 84 1013.0
20260506042126 39 11 6.0 7.0 0.00 0.54 0.00 84 1013.1
20260506041126 38 14 5.0 8.0 0.00 0.54 0.00 84 1013.2
20260506040626 38 10 3.0 7.0 0.00 0.54 0.00 84 1013.3
20260506040127 38 14 4.0 10.0 0.00 0.54 0.00 84 1013.3
20260506035626 38 15 3.0 7.0 0.00 0.54 0.00 84 1013.3
20260506034626 38 12 4.0 8.0 0.00 0.54 0.00 84 1013.5
20260506034127 38 10 5.0 9.0 0.00 0.54 0.00 84 1013.5
20260506033626 38 12 4.0 10.0 0.00 0.54 0.00 84 1013.4
20260506033126 38 14 5.0 9.0 0.00 0.54 0.00 84 1013.3
20260506032626 38 13 4.0 9.0 0.00 0.54 0.00 84 1013.4
20260506032126 38 14 3.0 12.0 0.00 0.54 0.00 84 1013.5
20260506031626 38 15 6.0 10.0 0.00 0.54 0.00 84 1013.4
20260506031126 38 18 5.0 9.0 0.00 0.54 0.00 84 1013.4
20260506030627 38 10 5.0 9.0 0.00 0.54 0.00 84 1013.3
20260506030127 38 10 5.0 13.0 0.00 0.54 0.00 84 1013.4
20260506025626 38 12 6.0 10.0 0.00 0.54 0.00 84 1013.5
20260506025126 38 11 6.0 13.0 0.00 0.54 0.00 84 1013.4
20260506024626 38 13 7.0 12.0 0.00 0.54 0.00 84 1013.4
20260506024126 38 8 5.0 13.0 0.00 0.54 0.00 84 1013.4
20260506023626 38 10 6.0 12.0 0.00 0.54 0.00 84 1013.5
20260506023126 38 12 3.0 9.0 0.00 0.54 0.00 84 1013.6
20260506022626 38 9 7.0 12.0 0.00 0.54 0.00 84 1013.5
20260506022127 38 11 4.0 9.0 0.00 0.54 0.00 84 1013.6
20260506021626 38 9 6.0 9.0 0.00 0.54 0.00 84 1013.7
20260506021126 38 15 5.0 12.0 0.00 0.54 0.00 84 1013.6
20260506020626 38 12 3.0 10.0 0.00 0.54 0.00 84 1013.6
20260506015626 38 10 3.0 9.0 0.00 0.54 0.00 84 1013.7
20260506015126 38 14 4.0 12.0 0.00 0.54 0.00 84 1013.8
20260506014626 39 17 4.0 9.0 0.00 0.54 0.00 84 1013.8
20260506014126 39 12 3.0 10.0 0.00 0.54 0.00 84 1013.9
20260506013626 39 15 4.0 10.0 0.00 0.54 0.00 84 1013.9
20260506013126 39 16 4.0 7.0 0.00 0.54 0.00 84 1013.9
20260506012626 39 11 6.0 12.0 0.00 0.54 0.00 84 1013.9
20260506012126 39 8 6.0 13.0 0.00 0.54 0.00 84 1013.9
20260506011626 39 12 6.0 9.0 0.00 0.54 0.00 84 1013.9
20260506011126 39 12 4.0 14.0 0.00 0.54 0.00 84 1013.8
20260506010626 39 10 6.0 17.0 0.00 0.54 0.00 84 1014.0
20260506010126 39 12 7.0 14.0 0.00 0.54 0.00 84 1013.9
20260506005626 39 10 6.0 14.0 0.00 0.54 0.00 84 1013.8
20260506005126 39 10 6.0 12.0 0.00 0.54 0.00 84 1013.8
20260506004627 39 7 6.0 12.0 0.00 0.54 0.00 84 1013.9
20260506004126 39 17 5.0 13.0 0.00 0.54 0.00 84 1013.8
20260506003626 39 14 6.0 12.0 0.00 0.54 0.00 83 1013.8
20260506003126 39 14 5.0 9.0 0.00 0.54 0.00 83 1013.9
20260506002626 39 12 6.0 13.0 0.00 0.54 0.00 83 1013.9
20260506002126 39 11 7.0 14.0 0.00 0.54 0.00 83 1014.0
20260506001126 39 11 5.0 12.0 0.00 0.54 0.00 83 1014.0
20260506000627 39 10 7.0 16.0 0.00 0.54 0.00 83 1014.1
20260506000126 39 16 7.0 15.0 0.00 0.54 0.00 83 1014.1
20260505235126 39 10 6.0 12.0 0.00 0.54 0.00 83 1014.1
20260505234626 39 10 6.0 12.0 0.00 0.54 0.00 83 1014.1
20260505234126 39 13 9.0 15.0 0.00 0.54 0.00 83 1014.1
20260505233626 39 8 6.0 10.0 0.00 0.54 0.00 83 1014.2
20260505233126 39 17 5.0 10.0 0.00 0.54 0.00 83 1014.2
20260505232626 39 14 5.0 12.0 0.00 0.54 0.00 83 1014.3
20260505232126 39 12 5.0 12.0 0.00 0.54 0.00 83 1014.3
20260505231626 39 18 5.0 12.0 0.00 0.54 0.00 83 1014.4
20260505231126 39 13 7.0 17.0 0.00 0.54 0.00 83 1014.3
20260505230126 39 12 8.0 13.0 0.00 0.54 0.00 83 1014.4
20260505225626 39 6 10.0 16.0 0.00 0.54 0.00 83 1014.4
20260505225126 39 12 10.0 14.0 0.00 0.54 0.00 83 1014.5
20260505224626 39 8 7.0 13.0 0.00 0.54 0.00 83 1014.5
20260505223126 39 16 6.0 13.0 0.00 0.54 0.00 83 1014.5
20260505222626 39 9 6.0 12.0 0.00 0.54 0.00 83 1014.5
20260505222126 39 7 4.0 9.0 0.00 0.54 0.00 83 1014.5
20260505221626 39 13 5.0 9.0 0.00 0.54 0.00 83 1014.5
20260505221125 39 11 5.0 10.0 0.00 0.54 0.00 83 1014.6
20260505220626 39 11 3.0 7.0 0.00 0.54 0.00 83 1014.5
20260505220126 39 8 3.0 12.0 0.00 0.54 0.00 83 1014.6
20260505215626 39 12 5.0 10.0 0.00 0.54 0.54 83 1014.6
20260505215126 39 8 3.0 7.0 0.00 0.54 0.54 83 1014.7